| time (UTC) | temp C | wind direction | speed KPH | gust KPH | rain 1hr cm | rain 24hr cm | rain mn cm | humidity % | barometer mb |
| 20260507010020 | 15 | 315 | 3.2 | 8.0 | 0.00 | 0.18 | 0.18 | 94 | 1007.0 |
| 20260507005019 | 15 | 270 | 4.8 | 14.5 | 0.00 | 0.18 | 0.18 | 94 | 1007.1 |
| 20260507004059 | 15 | 293 | 3.2 | 9.7 | 0.00 | 0.18 | 0.18 | 94 | 1006.9 |
| 20260507003039 | 15 | 315 | 3.2 | 6.4 | 0.00 | 0.18 | 0.18 | 94 | 1007.0 |
| 20260507002019 | 15 | 315 | 3.2 | 9.7 | 0.00 | 0.18 | 0.18 | 94 | 1006.9 |
| 20260507001119 | 15 | 315 | 3.2 | 9.7 | 0.00 | 0.18 | 0.18 | 94 | 1006.8 |
| 20260507000140 | 15 | 315 | 3.2 | 8.0 | 0.00 | 0.18 | 0.18 | 93 | 1006.6 |
| 20260506235019 | 15 | 293 | 3.2 | 9.7 | 0.05 | 0.18 | 0.18 | 93 | 1006.4 |
| 20260506234019 | 15 | 23 | 3.2 | 6.4 | 0.05 | 0.18 | 0.18 | 93 | 1006.5 |
| 20260506233039 | 15 | 315 | 3.2 | 6.4 | 0.05 | 0.18 | 0.18 | 93 | 1006.5 |
| 20260506232019 | 15 | 23 | 3.2 | 8.0 | 0.08 | 0.18 | 0.18 | 93 | 1006.3 |
| 20260506231019 | 15 | 338 | 3.2 | 6.4 | 0.08 | 0.18 | 0.18 | 93 | 1006.3 |
| 20260506230039 | 15 | 338 | 3.2 | 6.4 | 0.08 | 0.18 | 0.18 | 92 | 1006.5 |
| 20260506225019 | 15 | 180 | 3.2 | 9.7 | 0.03 | 0.13 | 0.13 | 92 | 1006.4 |
| 20260506224019 | 15 | 0 | 3.2 | 6.4 | 0.03 | 0.13 | 0.13 | 92 | 1006.5 |
| 20260506223019 | 15 | 0 | 3.2 | 9.7 | 0.03 | 0.13 | 0.13 | 92 | 1006.6 |
| 20260506222019 | 15 | 0 | 3.2 | 9.7 | 0.00 | 0.10 | 0.10 | 92 | 1006.6 |
| 20260506221020 | 15 | 158 | 3.2 | 8.0 | 0.00 | 0.10 | 0.10 | 91 | 1006.8 |
| 20260506220039 | 15 | 135 | 3.2 | 11.3 | 0.00 | 0.10 | 0.10 | 91 | 1006.8 |
| 20260506215019 | 15 | 338 | 1.6 | 6.4 | 0.00 | 0.10 | 0.10 | 91 | 1006.9 |
| 20260506214019 | 16 | 315 | 3.2 | 9.7 | 0.00 | 0.10 | 0.10 | 91 | 1006.9 |
| 20260506213040 | 16 | 23 | 3.2 | 6.4 | 0.00 | 0.10 | 0.10 | 90 | 1007.2 |
| 20260506212019 | 16 | 0 | 3.2 | 6.4 | 0.00 | 0.10 | 0.10 | 90 | 1007.2 |
| 20260506211019 | 15 | 315 | 3.2 | 9.7 | 0.00 | 0.10 | 0.10 | 90 | 1007.2 |
| 20260506210039 | 15 | 315 | 3.2 | 9.7 | 0.00 | 0.10 | 0.10 | 90 | 1007.3 |
| 20260506205019 | 16 | 315 | 4.8 | 9.7 | 0.00 | 0.10 | 0.10 | 90 | 1007.4 |
| 20260506204039 | 16 | 293 | 4.8 | 20.9 | 0.00 | 0.10 | 0.10 | 89 | 1007.5 |
| 20260506203039 | 16 | 293 | 4.8 | 12.9 | 0.00 | 0.10 | 0.10 | 89 | 1007.5 |
| 20260506202019 | 16 | 315 | 3.2 | 12.9 | 0.03 | 0.10 | 0.10 | 88 | 1007.6 |
| 20260506201019 | 16 | 315 | 4.8 | 12.9 | 0.05 | 0.10 | 0.10 | 88 | 1007.6 |
| 20260506200019 | 16 | 90 | 4.8 | 17.7 | 0.08 | 0.10 | 0.10 | 87 | 1007.5 |
| 20260506195019 | 16 | 315 | 3.2 | 11.3 | 0.10 | 0.10 | 0.10 | 86 | 1007.6 |
| 20260506194019 | 16 | 315 | 4.8 | 9.7 | 0.10 | 0.10 | 0.10 | 86 | 1007.5 |
| 20260506193018 | 17 | 315 | 4.8 | 12.9 | 0.10 | 0.10 | 0.10 | 84 | 1007.6 |
| 20260506192019 | 17 | 338 | 3.2 | 11.3 | 0.08 | 0.08 | 0.08 | 82 | 1007.8 |
| 20260506191019 | 18 | 315 | 4.8 | 11.3 | 0.05 | 0.05 | 0.05 | 80 | 1007.7 |
| 20260506190019 | 18 | 315 | 3.2 | 6.4 | 0.03 | 0.03 | 0.03 | 78 | 1007.6 |
| 20260506185039 | 18 | 293 | 4.8 | 14.5 | 0.00 | 0.00 | 0.00 | 77 | 1007.8 |
| 20260506184019 | 19 | 293 | 4.8 | 11.3 | 0.00 | 0.00 | 0.00 | 75 | 1007.9 |
| 20260506183018 | 20 | 293 | 4.8 | 11.3 | 0.00 | 0.00 | 0.00 | 73 | 1008.1 |
| 20260506182018 | 20 | 293 | 4.8 | 11.3 | 0.00 | 0.00 | 0.00 | 71 | 1008.2 |
| 20260506181019 | 20 | 293 | 6.4 | 20.9 | 0.00 | 0.00 | 0.00 | 68 | 1008.1 |
| 20260506180019 | 21 | 293 | 9.7 | 20.9 | 0.00 | 0.00 | 0.00 | 65 | 1008.2 |
| 20260506175018 | 22 | 293 | 4.8 | 14.5 | 0.00 | 0.00 | 0.00 | 62 | 1008.2 |
| 20260506174038 | 22 | 315 | 8.0 | 16.1 | 0.00 | 0.00 | 0.00 | 59 | 1008.1 |
| 20260506173018 | 22 | 315 | 8.0 | 20.9 | 0.00 | 0.00 | 0.00 | 58 | 1008.2 |
| 20260506172018 | 22 | 338 | 6.4 | 16.1 | 0.00 | 0.00 | 0.00 | 59 | 1008.1 |
| 20260506171019 | 22 | 315 | 4.8 | 12.9 | 0.00 | 0.00 | 0.00 | 60 | 1008.2 |
| 20260506170038 | 22 | 315 | 6.4 | 16.1 | 0.00 | 0.00 | 0.00 | 59 | 1008.3 |
| 20260506165018 | 22 | 315 | 6.4 | 20.9 | 0.00 | 0.00 | 0.00 | 59 | 1008.3 |
| 20260506164019 | 22 | 293 | 8.0 | 19.3 | 0.00 | 0.00 | 0.00 | 61 | 1008.6 |
| 20260506163039 | 22 | 293 | 6.4 | 17.7 | 0.00 | 0.00 | 0.00 | 61 | 1008.7 |
| 20260506162018 | 22 | 315 | 6.4 | 22.5 | 0.00 | 0.00 | 0.00 | 61 | 1008.7 |
| 20260506161038 | 21 | 315 | 3.2 | 9.7 | 0.00 | 0.00 | 0.00 | 63 | 1008.9 |
| 20260506160018 | 21 | 315 | 4.8 | 16.1 | 0.00 | 0.00 | 0.00 | 64 | 1009.3 |
| 20260506155018 | 21 | 0 | 3.2 | 12.9 | 0.00 | 0.00 | 0.00 | 64 | 1009.4 |
| 20260506154018 | 21 | 293 | 8.0 | 19.3 | 0.00 | 0.00 | 0.00 | 64 | 1009.3 |
| 20260506153038 | 21 | 315 | 4.8 | 16.1 | 0.00 | 0.00 | 0.00 | 63 | 1009.4 |
| 20260506152018 | 21 | 338 | 4.8 | 12.9 | 0.00 | 0.00 | 0.00 | 64 | 1009.7 |
| 20260506151018 | 21 | 293 | 6.4 | 17.7 | 0.00 | 0.00 | 0.00 | 64 | 1009.7 |
| 20260506150018 | 21 | 293 | 4.8 | 12.9 | 0.00 | 0.00 | 0.00 | 65 | 1009.8 |
| 20260506145019 | 21 | 315 | 6.4 | 17.7 | 0.00 | 0.00 | 0.00 | 66 | 1009.7 |
| 20260506144018 | 21 | 0 | 6.4 | 14.5 | 0.00 | 0.00 | 0.00 | 66 | 1009.8 |
| 20260506143018 | 21 | 68 | 3.2 | 11.3 | 0.00 | 0.00 | 0.00 | 68 | 1009.8 |
| 20260506142018 | 20 | 293 | 3.2 | 6.4 | 0.00 | 0.00 | 0.00 | 69 | 1009.8 |
| 20260506141018 | 20 | 68 | 3.2 | 9.7 | 0.00 | 0.00 | 0.00 | 70 | 1009.7 |
| 20260506140018 | 20 | 293 | 4.8 | 11.3 | 0.00 | 0.00 | 0.00 | 71 | 1009.7 |
| 20260506135038 | 20 | 315 | 6.4 | 17.7 | 0.00 | 0.00 | 0.00 | 72 | 1010.0 |
| 20260506134019 | 20 | 23 | 4.8 | 11.3 | 0.00 | 0.00 | 0.00 | 72 | 1009.9 |
| 20260506133018 | 20 | 270 | 6.4 | 16.1 | 0.00 | 0.00 | 0.00 | 72 | 1010.0 |
| 20260506132018 | 20 | 315 | 4.8 | 16.1 | 0.00 | 0.00 | 0.00 | 73 | 1010.5 |
| 20260506131039 | 18 | 338 | 4.8 | 12.9 | 0.00 | 0.00 | 0.00 | 75 | 1010.4 |
| 20260506130018 | 18 | 315 | 4.8 | 14.5 | 0.00 | 0.00 | 0.00 | 74 | 1010.3 |
| 20260506125039 | 18 | 315 | 6.4 | 12.9 | 0.00 | 0.00 | 0.00 | 75 | 1010.3 |
| 20260506124018 | 18 | 315 | 6.4 | 14.5 | 0.00 | 0.00 | 0.00 | 76 | 1010.2 |
| 20260506123018 | 17 | 338 | 3.2 | 14.5 | 0.00 | 0.00 | 0.00 | 78 | 1010.3 |
| 20260506122118 | 17 | 315 | 6.4 | 17.7 | 0.00 | 0.00 | 0.00 | 79 | 1010.4 |
| 20260506121058 | 17 | 338 | 6.4 | 16.1 | 0.00 | 0.00 | 0.00 | 79 | 1010.5 |
| 20260506120018 | 17 | 293 | 4.8 | 16.1 | 0.00 | 0.00 | 0.00 | 80 | 1010.4 |
| 20260506115018 | 16 | 315 | 4.8 | 12.9 | 0.00 | 0.00 | 0.00 | 81 | 1010.4 |
| 20260506114018 | 16 | 0 | 4.8 | 11.3 | 0.00 | 0.00 | 0.00 | 82 | 1010.8 |
| 20260506113018 | 16 | 315 | 6.4 | 19.3 | 0.00 | 0.00 | 0.00 | 82 | 1010.7 |
| 20260506112058 | 16 | 293 | 4.8 | 9.7 | 0.00 | 0.00 | 0.00 | 83 | 1011.1 |
| 20260506111018 | 15 | 315 | 4.8 | 14.5 | 0.00 | 0.00 | 0.00 | 83 | 1010.9 |
| 20260506110018 | 15 | 315 | 3.2 | 9.7 | 0.00 | 0.00 | 0.00 | 84 | 1010.8 |
| 20260506105018 | 15 | 0 | 3.2 | 14.5 | 0.00 | 0.00 | 0.00 | 84 | 1010.7 |
| 20260506104018 | 15 | 0 | 3.2 | 8.0 | 0.00 | 0.00 | 0.00 | 84 | 1010.9 |
| 20260506103018 | 15 | 0 | 3.2 | 6.4 | 0.00 | 0.00 | 0.00 | 84 | 1010.5 |
| 20260506102019 | 15 | 0 | 1.6 | 4.8 | 0.00 | 0.00 | 0.00 | 84 | 1010.7 |
| 20260506101017 | 15 | 135 | 3.2 | 8.0 | 0.00 | 0.00 | 0.00 | 84 | 1010.7 |
| 20260506100017 | 15 | 90 | 1.6 | 6.4 | 0.00 | 0.00 | 0.00 | 83 | 1010.4 |
| 20260506095018 | 15 | 45 | 3.2 | 12.9 | 0.00 | 0.00 | 0.00 | 83 | 1010.6 |
| 20260506094038 | 15 | 338 | 3.2 | 6.4 | 0.00 | 0.00 | 0.00 | 83 | 1010.4 |
| 20260506093017 | 15 | 315 | 1.6 | 6.4 | 0.00 | 0.00 | 0.00 | 83 | 1010.4 |
| 20260506092017 | 15 | 315 | 3.2 | 8.0 | 0.00 | 0.00 | 0.00 | 82 | 1010.5 |
| 20260506091018 | 15 | 270 | 1.6 | 6.4 | 0.00 | 0.00 | 0.00 | 82 | 1010.4 |
| 20260506090017 | 15 | 0 | 3.2 | 9.7 | 0.00 | 0.00 | 0.00 | 81 | 1010.4 |
| 20260506085018 | 15 | 338 | 3.2 | 6.4 | 0.00 | 0.00 | 0.00 | 81 | 1010.6 |
| 20260506084020 | 15 | 45 | 3.2 | 11.3 | 0.00 | 0.00 | 0.00 | 80 | 1010.8 |
| 20260506083019 | 15 | 23 | 4.8 | 16.1 | 0.00 | 0.00 | 0.00 | 80 | 1010.6 |
| 20260506082019 | 15 | 315 | 3.2 | 17.7 | 0.00 | 0.00 | 0.00 | 79 | 1010.7 |
| 20260506081059 | 15 | 293 | 3.2 | 8.0 | 0.00 | 0.00 | 0.00 | 79 | 1010.5 |
| 20260506073040 | 16 | 338 | 4.8 | 12.9 | 0.00 | 0.00 | 0.00 | 76 | 1010.7 |
| 20260506072020 | 16 | 315 | 4.8 | 12.9 | 0.00 | 0.00 | 0.00 | 76 | 1010.5 |
| 20260506071019 | 16 | 315 | 3.2 | 19.3 | 0.00 | 0.00 | 0.00 | 76 | 1010.3 |
| 20260506062019 | 17 | 315 | 3.2 | 6.4 | 0.00 | 0.00 | 0.00 | 73 | 1010.3 |
| 20260506061019 | 17 | 293 | 4.8 | 16.1 | 0.00 | 0.00 | 0.00 | 72 | 1010.3 |
| 20260506051019 | 17 | 315 | 4.8 | 20.9 | 0.00 | 0.00 | 0.00 | 69 | 1010.6 |
| 20260506045019 | 17 | 315 | 4.8 | 14.5 | 0.00 | 0.00 | 0.00 | 69 | 1010.8 |
| 20260506044019 | 17 | 315 | 3.2 | 12.9 | 0.00 | 0.00 | 0.00 | 69 | 1010.8 |
| 20260506043019 | 17 | 315 | 4.8 | 17.7 | 0.00 | 0.00 | 0.00 | 69 | 1010.9 |
| 20260506042020 | 17 | 315 | 3.2 | 6.4 | 0.00 | 0.00 | 0.00 | 69 | 1010.9 |
| 20260506041019 | 17 | 315 | 4.8 | 8.0 | 0.00 | 0.00 | 0.00 | 69 | 1010.9 |
| 20260506040019 | 17 | 338 | 3.2 | 6.4 | 0.00 | 0.00 | 0.00 | 69 | 1011.0 |
| 20260506035019 | 17 | 315 | 4.8 | 16.1 | 0.00 | 0.00 | 0.00 | 69 | 1010.9 |
| 20260506034019 | 17 | 315 | 3.2 | 9.7 | 0.00 | 0.00 | 0.00 | 69 | 1010.8 |
| 20260506033020 | 17 | 315 | 3.2 | 9.7 | 0.00 | 0.00 | 0.00 | 69 | 1010.8 |
| 20260506032019 | 17 | 23 | 3.2 | 6.4 | 0.00 | 0.00 | 0.00 | 68 | 1010.7 |
| 20260506031019 | 17 | 293 | 3.2 | 9.7 | 0.00 | 0.00 | 0.00 | 68 | 1010.7 |
| 20260506030019 | 17 | 315 | 4.8 | 11.3 | 0.00 | 0.00 | 0.00 | 67 | 1010.8 |
| 20260506025019 | 17 | 315 | 4.8 | 14.5 | 0.00 | 0.00 | 0.00 | 67 | 1010.6 |
| 20260506024039 | 17 | 315 | 4.8 | 16.1 | 0.00 | 0.00 | 0.00 | 66 | 1010.7 |
| 20260506023019 | 17 | 0 | 3.2 | 11.3 | 0.00 | 0.00 | 0.00 | 66 | 1010.7 |
| 20260506022019 | 17 | 315 | 4.8 | 12.9 | 0.00 | 0.00 | 0.00 | 65 | 1010.7 |
| 20260506021019 | 17 | 0 | 3.2 | 11.3 | 0.00 | 0.00 | 0.00 | 65 | 1010.7 |
| 20260506020019 | 17 | 315 | 3.2 | 11.3 | 0.00 | 0.00 | 0.00 | 64 | 1010.5 |
| 20260506015019 | 18 | 315 | 3.2 | 9.7 | 0.00 | 0.00 | 0.00 | 63 | 1010.5 |
| 20260506014019 | 18 | 338 | 4.8 | 14.5 | 0.00 | 0.00 | 0.00 | 62 | 1010.4 |
| 20260506013019 | 18 | 270 | 4.8 | 12.9 | 0.00 | 0.00 | 0.00 | 62 | 1010.2 |
| 20260506012020 | 18 | 315 | 4.8 | 14.5 | 0.00 | 0.00 | 0.00 | 61 | 1010.2 |
| 20260506011019 | 18 | 293 | 4.8 | 9.7 | 0.00 | 0.00 | 0.00 | 61 | 1010.0 |